Time,TemperatureF,DewpointF,PressureIn,WindDirection,WindDirectionDegrees,WindSpeedMPH,WindSpeedGustMPH,Humidity,HourlyPrecipIn,Conditions,Clouds,dailyrainin,SolarRadiationWatts/m^2,SoftwareType,DateUTC
2013-04-02 00:02:00,29.4,15.7,30.33,NE,48,0.0,1.0,56,0.00,,,0.00,0,HR-IXPWINDi_r2_v1.2.,2013-04-02 05:02:00,
2013-04-02 00:07:00,29.2,15.9,30.33,ENE,58,0.0,1.0,57,0.00,,,0.00,0,HR-IXPWINDi_r2_v1.2.,2013-04-02 05:07:00,
2013-04-02 00:12:00,29.0,16.1,30.33,ENE,58,0.0,1.0,58,0.00,,,0.00,0,HR-IXPWINDi_r2_v1.2.,2013-04-02 05:12:00,
2013-04-02 00:18:00,28.8,15.9,30.33,ENE,58,0.0,1.0,58,0.00,,,0.00,0,HR-IXPWINDi_r2_v1.2.,2013-04-02 05:18:00,
2013-04-02 00:23:00,28.7,16.2,30.33,ENE,58,0.0,1.0,59,0.00,,,0.00,0,HR-IXPWINDi_r2_v1.2.,2013-04-02 05:23:00,
2013-04-02 00:28:00,28.7,16.2,30.33,ENE,76,0.0,2.0,59,0.00,,,0.00,0,HR-IXPWINDi_r2_v1.2.,2013-04-02 05:28:00,
2013-04-02 00:33:00,28.7,16.2,30.33,ENE,77,0.0,2.0,59,0.00,,,0.00,0,HR-IXPWINDi_r2_v1.2.,2013-04-02 05:33:00,
2013-04-02 00:38:00,28.8,16.7,30.33,ENE,78,0.0,1.0,60,0.00,,,0.00,0,HR-IXPWINDi_r2_v1.2.,2013-04-02 05:38:00,
2013-04-02 00:43:00,28.7,16.6,30.33,ENE,78,0.0,1.0,60,0.00,,,0.00,0,HR-IXPWINDi_r2_v1.2.,2013-04-02 05:43:00,
2013-04-02 00:48:00,28.8,16.7,30.33,East,80,0.0,1.0,60,0.00,,,0.00,0,HR-IXPWINDi_r2_v1.2.,2013-04-02 05:48:00,
2013-04-02 00:53:00,28.7,16.6,30.33,ESE,105,0.0,2.0,60,0.00,,,0.00,0,HR-IXPWINDi_r2_v1.2.,2013-04-02 05:53:00,
2013-04-02 00:59:00,28.7,16.6,30.33,ESE,109,0.0,2.0,60,0.00,,,0.00,0,HR-IXPWINDi_r2_v1.2.,2013-04-02 05:59:00,
2013-04-02 01:04:00,28.6,16.5,30.33,ESE,109,0.0,2.0,60,0.00,,,0.00,0,HR-IXPWINDi_r2_v1.2.,2013-04-02 06:04:00,
2013-04-02 01:09:00,28.5,16.4,30.33,ESE,109,0.0,2.0,60,0.00,,,0.00,0,HR-IXPWINDi_r2_v1.2.,2013-04-02 06:09:00,
2013-04-02 01:14:00,28.3,16.6,30.33,ESE,111,0.0,2.0,61,0.00,,,0.00,0,HR-IXPWINDi_r2_v1.2.,2013-04-02 06:14:00,
2013-04-02 01:19:00,28.2,16.9,30.33,SE,137,0.0,2.0,62,0.00,,,0.00,0,HR-IXPWINDi_r2_v1.2.,2013-04-02 06:19:00,
2013-04-02 01:24:00,28.1,17.1,30.33,SE,138,0.0,2.0,63,0.00,,,0.00,0,HR-IXPWINDi_r2_v1.2.,2013-04-02 06:24:00,
2013-04-02 01:29:00,27.9,17.0,30.33,SE,138,0.0,2.0,63,0.00,,,0.00,0,HR-IXPWINDi_r2_v1.2.,2013-04-02 06:29:00,
2013-04-02 01:34:00,27.9,17.3,30.33,South,176,0.0,4.0,64,0.00,,,0.00,0,HR-IXPWINDi_r2_v1.2.,2013-04-02 06:34:00,
2013-04-02 01:39:00,27.8,17.6,30.33,South,178,0.0,4.0,65,0.00,,,0.00,0,HR-IXPWINDi_r2_v1.2.,2013-04-02 06:39:00,
2013-04-02 01:45:00,27.8,17.9,30.33,SSW,209,3.0,4.0,66,0.00,,,0.00,0,HR-IXPWINDi_r2_v1.2.,2013-04-02 06:45:00,
2013-04-02 01:50:00,27.8,17.9,30.33,SSW,209,0.0,4.0,66,0.00,,,0.00,0,HR-IXPWINDi_r2_v1.2.,2013-04-02 06:50:00,
2013-04-02 01:55:00,27.8,17.9,30.33,SSW,208,1.0,4.0,66,0.00,,,0.00,0,HR-IXPWINDi_r2_v1.2.,2013-04-02 06:55:00,
2013-04-02 02:00:00,27.7,17.8,30.33,SSW,207,0.0,4.0,66,0.00,,,0.00,0,HR-IXPWINDi_r2_v1.2.,2013-04-02 07:00:00,
2013-04-02 02:05:00,27.6,17.7,30.33,SSW,207,0.0,1.0,66,0.00,,,0.00,0,HR-IXPWINDi_r2_v1.2.,2013-04-02 07:05:00,
2013-04-02 02:11:00,27.5,17.7,30.33,SSW,207,0.0,1.0,66,0.00,,,0.00,0,HR-IXPWINDi_r2_v1.2.,2013-04-02 07:11:00,
2013-04-02 02:16:00,27.4,17.6,30.33,SSW,207,0.0,2.0,66,0.00,,,0.00,0,HR-IXPWINDi_r2_v1.2.,2013-04-02 07:16:00,
2013-04-02 02:21:00,27.4,17.9,30.33,SSW,207,1.0,2.0,67,0.00,,,0.00,0,HR-IXPWINDi_r2_v1.2.,2013-04-02 07:21:00,
2013-04-02 02:26:00,27.3,17.8,30.33,SSW,207,3.0,3.0,67,0.00,,,0.00,0,HR-IXPWINDi_r2_v1.2.,2013-04-02 07:26:00,
2013-04-02 02:32:00,27.3,18.2,30.32,SSW,207,0.0,3.0,68,0.00,,,0.00,0,HR-IXPWINDi_r2_v1.2.,2013-04-02 07:32:00,
2013-04-02 02:37:00,27.3,18.2,30.32,SSW,207,0.0,3.0,68,0.00,,,0.00,0,HR-IXPWINDi_r2_v1.2.,2013-04-02 07:37:00,
2013-04-02 02:42:00,27.4,18.2,30.32,SSW,207,2.0,2.0,68,0.00,,,0.00,0,HR-IXPWINDi_r2_v1.2.,2013-04-02 07:42:00,
2013-04-02 02:47:00,27.4,18.2,30.32,SSW,207,0.0,2.0,68,0.00,,,0.00,0,HR-IXPWINDi_r2_v1.2.,2013-04-02 07:47:00,
2013-04-02 02:52:00,27.4,18.6,30.32,SSW,207,0.0,2.0,69,0.00,,,0.00,0,HR-IXPWINDi_r2_v1.2.,2013-04-02 07:52:00,
2013-04-02 02:58:00,27.3,18.5,30.32,SSW,207,1.0,2.0,69,0.00,,,0.00,0,HR-IXPWINDi_r2_v1.2.,2013-04-02 07:58:00,
2013-04-02 03:03:00,27.3,18.5,30.32,SSW,208,0.0,3.0,69,0.00,,,0.00,0,HR-IXPWINDi_r2_v1.2.,2013-04-02 08:03:00,
2013-04-02 03:08:00,27.2,18.4,30.32,SSW,208,2.0,3.0,69,0.00,,,0.00,0,HR-IXPWINDi_r2_v1.2.,2013-04-02 08:08:00,
2013-04-02 03:13:00,27.2,18.4,30.32,SSW,207,1.0,3.0,69,0.00,,,0.00,0,HR-IXPWINDi_r2_v1.2.,2013-04-02 08:13:00,
2013-04-02 03:18:00,27.1,18.6,30.32,SSW,208,0.0,3.0,70,0.00,,,0.00,0,HR-IXPWINDi_r2_v1.2.,2013-04-02 08:18:00,
2013-04-02 03:23:00,27.1,18.3,30.32,SSW,207,1.0,3.0,69,0.00,,,0.00,0,HR-IXPWINDi_r2_v1.2.,2013-04-02 08:23:00,
2013-04-02 03:28:00,27.1,18.3,30.32,SSW,208,0.0,3.0,69,0.00,,,0.00,0,HR-IXPWINDi_r2_v1.2.,2013-04-02 08:28:00,
2013-04-02 03:33:00,27.1,18.3,30.32,SSW,208,1.0,3.0,69,0.00,,,0.00,0,HR-IXPWINDi_r2_v1.2.,2013-04-02 08:33:00,
2013-04-02 03:38:00,27.1,18.3,30.32,SSW,208,0.0,3.0,69,0.00,,,0.00,0,HR-IXPWINDi_r2_v1.2.,2013-04-02 08:38:00,
2013-04-02 03:43:00,27.1,18.3,30.32,SSW,208,1.0,4.0,69,0.00,,,0.00,0,HR-IXPWINDi_r2_v1.2.,2013-04-02 08:43:00,
2013-04-02 03:49:00,27.1,18.3,30.32,SSW,208,0.0,4.0,69,0.00,,,0.00,0,HR-IXPWINDi_r2_v1.2.,2013-04-02 08:49:00,
2013-04-02 03:54:00,27.2,18.7,30.32,SSW,207,0.0,3.0,70,0.00,,,0.00,0,HR-IXPWINDi_r2_v1.2.,2013-04-02 08:54:00,
2013-04-02 03:59:00,27.1,18.6,30.32,SSW,207,2.0,3.0,70,0.00,,,0.00,0,HR-IXPWINDi_r2_v1.2.,2013-04-02 08:59:00,
2013-04-02 04:04:00,27.0,18.5,30.33,SSW,209,0.0,4.0,70,0.00,,,0.00,0,HR-IXPWINDi_r2_v1.2.,2013-04-02 09:04:00,
2013-04-02 04:09:00,26.9,18.4,30.33,SSW,209,3.0,4.0,70,0.00,,,0.00,0,HR-IXPWINDi_r2_v1.2.,2013-04-02 09:09:00,
2013-04-02 04:15:00,26.8,18.3,30.33,SSW,210,2.0,4.0,70,0.00,,,0.00,0,HR-IXPWINDi_r2_v1.2.,2013-04-02 09:15:00,
2013-04-02 04:20:00,26.7,18.2,30.33,SW,215,3.0,5.0,70,0.00,,,0.00,0,HR-IXPWINDi_r2_v1.2.,2013-04-02 09:20:00,
2013-04-02 04:25:00,26.7,18.2,30.33,SW,217,1.0,5.0,70,0.00,,,0.00,0,HR-IXPWINDi_r2_v1.2.,2013-04-02 09:25:00,
2013-04-02 04:30:00,26.7,18.2,30.33,SW,223,2.0,4.0,70,0.00,,,0.00,0,HR-IXPWINDi_r2_v1.2.,2013-04-02 09:30:00,
2013-04-02 04:35:00,26.9,18.4,30.33,SW,234,3.0,4.0,70,0.00,,,0.00,0,HR-IXPWINDi_r2_v1.2.,2013-04-02 09:35:00,
2013-04-02 04:40:00,26.9,18.4,30.33,WSW,238,1.0,4.0,70,0.00,,,0.00,0,HR-IXPWINDi_r2_v1.2.,2013-04-02 09:40:00,
2013-04-02 04:46:00,27.0,18.5,30.33,WSW,257,3.0,4.0,70,0.00,,,0.00,0,HR-IXPWINDi_r2_v1.2.,2013-04-02 09:46:00,
2013-04-02 04:51:00,27.1,18.6,30.34,WSW,255,3.0,5.0,70,0.00,,,0.00,0,HR-IXPWINDi_r2_v1.2.,2013-04-02 09:51:00,
2013-04-02 04:56:00,27.1,18.6,30.34,WSW,256,1.0,5.0,70,0.00,,,0.00,0,HR-IXPWINDi_r2_v1.2.,2013-04-02 09:56:00,
2013-04-02 05:01:00,27.0,18.2,30.34,WSW,255,3.0,4.0,69,0.00,,,0.00,0,HR-IXPWINDi_r2_v1.2.,2013-04-02 10:01:00,
2013-04-02 05:06:00,26.9,18.4,30.34,WSW,254,3.0,4.0,70,0.00,,,0.00,0,HR-IXPWINDi_r2_v1.2.,2013-04-02 10:06:00,
2013-04-02 05:12:00,26.9,18.4,30.34,WSW,253,1.0,4.0,70,0.00,,,0.00,0,HR-IXPWINDi_r2_v1.2.,2013-04-02 10:12:00,
2013-04-02 05:17:00,26.9,18.4,30.34,WSW,253,2.0,4.0,70,0.00,,,0.00,0,HR-IXPWINDi_r2_v1.2.,2013-04-02 10:17:00,
2013-04-02 05:22:00,26.8,18.3,30.34,WSW,253,0.0,3.0,70,0.00,,,0.00,0,HR-IXPWINDi_r2_v1.2.,2013-04-02 10:22:00,
2013-04-02 05:27:00,26.7,18.2,30.34,WSW,250,3.0,4.0,70,0.00,,,0.00,0,HR-IXPWINDi_r2_v1.2.,2013-04-02 10:27:00,
2013-04-02 05:32:00,26.7,18.2,30.34,WSW,247,2.0,5.0,70,0.00,,,0.00,0,HR-IXPWINDi_r2_v1.2.,2013-04-02 10:32:00,
2013-04-02 05:38:00,26.7,18.2,30.34,WSW,246,0.0,5.0,70,0.00,,,0.00,0,HR-IXPWINDi_r2_v1.2.,2013-04-02 10:38:00,
2013-04-02 05:43:00,26.7,18.2,30.34,WSW,246,1.0,4.0,70,0.00,,,0.00,0,HR-IXPWINDi_r2_v1.2.,2013-04-02 10:43:00,
2013-04-02 05:48:00,26.7,18.2,30.34,WSW,245,1.0,4.0,70,0.00,,,0.00,0,HR-IXPWINDi_r2_v1.2.,2013-04-02 10:48:00,
2013-04-02 05:53:00,26.6,18.2,30.35,WSW,245,0.0,4.0,70,0.00,,,0.00,0,HR-IXPWINDi_r2_v1.2.,2013-04-02 10:53:00,
2013-04-02 05:58:00,26.5,18.1,30.35,WSW,245,0.0,3.0,70,0.00,,,0.00,0,HR-IXPWINDi_r2_v1.2.,2013-04-02 10:58:00,
2013-04-02 06:03:00,26.4,18.0,30.35,WSW,245,0.0,1.0,70,0.00,,,0.00,0,HR-IXPWINDi_r2_v1.2.,2013-04-02 11:03:00,
2013-04-02 06:09:00,26.2,17.8,30.35,WSW,245,0.0,1.0,70,0.00,,,0.00,0,HR-IXPWINDi_r2_v1.2.,2013-04-02 11:09:00,
2013-04-02 06:14:00,26.0,17.6,30.35,WSW,245,0.0,1.0,70,0.00,,,0.00,0,HR-IXPWINDi_r2_v1.2.,2013-04-02 11:14:00,
2013-04-02 06:19:00,25.9,17.8,30.35,WSW,245,0.0,1.0,71,0.00,,,0.00,0,HR-IXPWINDi_r2_v1.2.,2013-04-02 11:19:00,
2013-04-02 06:24:00,25.8,17.7,30.35,WSW,245,0.0,1.0,71,0.00,,,0.00,0,HR-IXPWINDi_r2_v1.2.,2013-04-02 11:24:00,
2013-04-02 06:29:00,25.7,17.6,30.35,WSW,245,0.0,1.0,71,0.00,,,0.00,0,HR-IXPWINDi_r2_v1.2.,2013-04-02 11:29:00,
2013-04-02 06:35:00,25.7,17.6,30.35,WSW,245,0.0,1.0,71,0.00,,,0.00,0,HR-IXPWINDi_r2_v1.2.,2013-04-02 11:35:00,
2013-04-02 06:40:00,25.6,17.8,30.35,WSW,245,0.0,1.0,72,0.00,,,0.00,0,HR-IXPWINDi_r2_v1.2.,2013-04-02 11:40:00,
2013-04-02 06:45:00,25.6,17.8,30.35,WSW,245,0.0,1.0,72,0.00,,,0.00,0,HR-IXPWINDi_r2_v1.2.,2013-04-02 11:45:00,
2013-04-02 06:50:00,25.6,18.2,30.35,WSW,245,0.0,1.0,73,0.00,,,0.00,0,HR-IXPWINDi_r2_v1.2.,2013-04-02 11:50:00,
2013-04-02 06:55:00,25.6,18.2,30.35,WSW,245,0.0,1.0,73,0.00,,,0.00,0,HR-IXPWINDi_r2_v1.2.,2013-04-02 11:55:00,
2013-04-02 07:01:00,25.5,18.1,30.35,WSW,245,0.0,1.0,73,0.00,,,0.00,0,HR-IXPWINDi_r2_v1.2.,2013-04-02 12:01:00,
2013-04-02 07:06:00,25.4,18.0,30.35,WSW,245,0.0,1.0,73,0.00,,,0.00,5,HR-IXPWINDi_r2_v1.2.,2013-04-02 12:06:00,
2013-04-02 07:11:00,25.4,18.0,30.35,West,260,2.0,3.0,73,0.00,,,0.00,9,HR-IXPWINDi_r2_v1.2.,2013-04-02 12:11:00,
2013-04-02 07:16:00,25.4,18.0,30.36,West,261,1.0,3.0,73,0.00,,,0.00,12,HR-IXPWINDi_r2_v1.2.,2013-04-02 12:16:00,
2013-04-02 07:21:00,25.4,18.3,30.36,West,260,1.0,3.0,74,0.00,,,0.00,18,HR-IXPWINDi_r2_v1.2.,2013-04-02 12:21:00,
2013-04-02 07:26:00,25.6,18.5,30.36,West,260,1.0,2.0,74,0.00,,,0.00,23,HR-IXPWINDi_r2_v1.2.,2013-04-02 12:26:00,
2013-04-02 07:31:00,25.8,18.4,30.36,West,260,0.0,3.0,73,0.00,,,0.00,32,HR-IXPWINDi_r2_v1.2.,2013-04-02 12:31:00,
2013-04-02 07:36:00,26.0,18.6,30.36,West,260,1.0,3.0,73,0.00,,,0.00,44,HR-IXPWINDi_r2_v1.2.,2013-04-02 12:36:00,
2013-04-02 07:42:00,26.2,18.7,30.36,West,260,0.0,2.0,73,0.00,,,0.00,56,HR-IXPWINDi_r2_v1.2.,2013-04-02 12:42:00,
2013-04-02 07:47:00,26.4,18.9,30.36,West,260,0.0,2.0,73,0.00,,,0.00,72,HR-IXPWINDi_r2_v1.2.,2013-04-02 12:47:00,
2013-04-02 07:52:00,26.7,18.9,30.36,West,260,0.0,2.0,72,0.00,,,0.00,88,HR-IXPWINDi_r2_v1.2.,2013-04-02 12:52:00,
2013-04-02 07:57:00,27.0,19.5,30.36,West,260,0.0,1.0,73,0.00,,,0.00,105,HR-IXPWINDi_r2_v1.2.,2013-04-02 12:57:00,
2013-04-02 08:02:00,27.4,19.6,30.36,West,260,0.0,0.0,72,0.00,,,0.00,127,HR-IXPWINDi_r2_v1.2.,2013-04-02 13:02:00,
2013-04-02 08:08:00,27.9,20.1,30.36,West,260,0.0,1.0,72,0.00,,,0.00,142,HR-IXPWINDi_r2_v1.2.,2013-04-02 13:08:00,
2013-04-02 08:13:00,28.4,20.5,30.36,West,260,0.0,1.0,72,0.00,,,0.00,165,HR-IXPWINDi_r2_v1.2.,2013-04-02 13:13:00,
2013-04-02 08:18:00,29.1,21.2,30.36,West,260,0.0,0.0,72,0.00,,,0.00,188,HR-IXPWINDi_r2_v1.2.,2013-04-02 13:18:00,
2013-04-02 08:24:00,30.0,22.4,30.36,West,260,0.0,0.0,73,0.00,,,0.00,204,HR-IXPWINDi_r2_v1.2.,2013-04-02 13:24:00,
2013-04-02 08:29:00,30.8,22.8,30.36,West,260,0.0,0.0,72,0.00,,,0.00,221,HR-IXPWINDi_r2_v1.2.,2013-04-02 13:29:00,
2013-04-02 08:34:00,31.5,23.5,30.36,West,260,0.0,0.0,72,0.00,,,0.00,237,HR-IXPWINDi_r2_v1.2.,2013-04-02 13:34:00,
2013-04-02 08:39:00,32.3,24.3,30.36,West,260,0.0,1.0,72,0.00,,,0.00,255,HR-IXPWINDi_r2_v1.2.,2013-04-02 13:39:00,
2013-04-02 08:44:00,33.0,25.0,30.36,West,260,0.0,1.0,72,0.00,,,0.00,274,HR-IXPWINDi_r2_v1.2.,2013-04-02 13:44:00,
2013-04-02 08:49:00,33.8,25.7,30.36,West,260,0.0,1.0,72,0.00,,,0.00,292,HR-IXPWINDi_r2_v1.2.,2013-04-02 13:49:00,
2013-04-02 08:54:00,34.3,25.2,30.36,WSW,258,0.0,3.0,69,0.00,,,0.00,309,HR-IXPWINDi_r2_v1.2.,2013-04-02 13:54:00,
2013-04-02 08:59:00,34.9,25.0,30.36,WSW,257,0.0,4.0,67,0.00,,,0.00,327,HR-IXPWINDi_r2_v1.2.,2013-04-02 13:59:00,
2013-04-02 09:04:00,35.4,25.2,30.36,WSW,257,0.0,4.0,66,0.00,,,0.00,343,HR-IXPWINDi_r2_v1.2.,2013-04-02 14:04:00,
2013-04-02 09:10:00,35.9,24.9,30.36,WSW,257,1.0,1.0,64,0.00,,,0.00,360,HR-IXPWINDi_r2_v1.2.,2013-04-02 14:10:00,
2013-04-02 09:15:00,36.6,25.2,30.36,WSW,257,0.0,1.0,63,0.00,,,0.00,378,HR-IXPWINDi_r2_v1.2.,2013-04-02 14:15:00,
2013-04-02 09:20:00,37.6,25.4,30.36,WSW,248,0.0,2.0,61,0.00,,,0.00,394,HR-IXPWINDi_r2_v1.2.,2013-04-02 14:20:00,
2013-04-02 09:25:00,38.5,24.6,30.36,SW,235,0.0,2.0,57,0.00,,,0.00,410,HR-IXPWINDi_r2_v1.2.,2013-04-02 14:25:00,
2013-04-02 09:31:00,39.3,24.0,30.36,SW,229,0.0,5.0,54,0.00,,,0.00,432,HR-IXPWINDi_r2_v1.2.,2013-04-02 14:31:00,
2013-04-02 09:36:00,40.2,24.4,30.36,West,260,1.0,5.0,53,0.00,,,0.00,446,HR-IXPWINDi_r2_v1.2.,2013-04-02 14:36:00,
2013-04-02 09:41:00,40.8,24.5,30.36,WSW,247,0.0,5.0,52,0.00,,,0.00,462,HR-IXPWINDi_r2_v1.2.,2013-04-02 14:41:00,
2013-04-02 09:47:00,41.4,24.1,30.36,WSW,257,0.0,3.0,50,0.00,,,0.00,480,HR-IXPWINDi_r2_v1.2.,2013-04-02 14:47:00,
2013-04-02 09:52:00,42.0,24.2,30.36,WSW,242,0.0,3.0,49,0.00,,,0.00,497,HR-IXPWINDi_r2_v1.2.,2013-04-02 14:52:00,
2013-04-02 09:57:00,42.6,24.3,30.36,WSW,238,2.0,4.0,48,0.00,,,0.00,517,HR-IXPWINDi_r2_v1.2.,2013-04-02 14:57:00,
2013-04-02 10:02:00,42.9,21.9,30.36,West,262,0.0,4.0,43,0.00,,,0.00,529,HR-IXPWINDi_r2_v1.2.,2013-04-02 15:02:00,
2013-04-02 10:07:00,43.0,22.6,30.36,WSW,252,0.0,4.0,44,0.00,,,0.00,598,HR-IXPWINDi_r2_v1.2.,2013-04-02 15:07:00,
2013-04-02 10:13:00,43.4,22.4,30.36,WSW,240,0.0,2.0,43,0.00,,,0.00,469,HR-IXPWINDi_r2_v1.2.,2013-04-02 15:13:00,
2013-04-02 10:18:00,44.1,21.9,30.36,SW,233,0.0,2.0,41,0.00,,,0.00,499,HR-IXPWINDi_r2_v1.2.,2013-04-02 15:18:00,
2013-04-02 10:23:00,44.8,21.3,30.36,SW,234,2.0,2.0,39,0.00,,,0.00,459,HR-IXPWINDi_r2_v1.2.,2013-04-02 15:23:00,
2013-04-02 10:28:00,45.0,20.9,30.36,SW,232,1.0,2.0,38,0.00,,,0.00,410,HR-IXPWINDi_r2_v1.2.,2013-04-02 15:28:00,
2013-04-02 10:33:00,44.4,20.4,30.36,South,179,2.0,2.0,38,0.00,,,0.00,420,HR-IXPWINDi_r2_v1.2.,2013-04-02 15:33:00,
2013-04-02 10:38:00,44.0,20.0,30.36,South,179,0.0,3.0,38,0.00,,,0.00,431,HR-IXPWINDi_r2_v1.2.,2013-04-02 15:38:00,
2013-04-02 10:43:00,44.6,20.6,30.36,SSW,203,0.0,3.0,38,0.00,,,0.00,410,HR-IXPWINDi_r2_v1.2.,2013-04-02 15:43:00,
2013-04-02 10:48:00,45.0,20.3,30.36,SSW,204,0.0,3.0,37,0.00,,,0.00,450,HR-IXPWINDi_r2_v1.2.,2013-04-02 15:48:00,
2013-04-02 10:54:00,44.7,21.9,30.36,SSW,206,1.0,2.0,40,0.00,,,0.00,436,HR-IXPWINDi_r2_v1.2.,2013-04-02 15:54:00,
2013-04-02 10:59:00,45.4,21.3,30.36,SSW,207,0.0,2.0,38,0.00,,,0.00,584,HR-IXPWINDi_r2_v1.2.,2013-04-02 15:59:00,
2013-04-02 11:04:00,46.0,20.5,30.36,West,259,3.0,6.0,36,0.00,,,0.00,689,HR-IXPWINDi_r2_v1.2.,2013-04-02 16:04:00,
2013-04-02 11:09:00,46.5,21.6,30.36,SW,233,0.0,6.0,37,0.00,,,0.00,631,HR-IXPWINDi_r2_v1.2.,2013-04-02 16:09:00,
2013-04-02 11:14:00,46.8,21.9,30.36,WSW,246,4.0,5.0,37,0.00,,,0.00,668,HR-IXPWINDi_r2_v1.2.,2013-04-02 16:14:00,
2013-04-02 11:20:00,47.2,20.9,30.36,West,279,0.0,5.0,35,0.00,,,0.00,610,HR-IXPWINDi_r2_v1.2.,2013-04-02 16:20:00,
2013-04-02 11:25:00,47.4,21.1,30.36,WNW,283,3.0,6.0,35,0.00,,,0.00,584,HR-IXPWINDi_r2_v1.2.,2013-04-02 16:25:00,
2013-04-02 11:30:00,47.2,21.6,30.36,East,90,1.0,6.0,36,0.00,,,0.00,715,HR-IXPWINDi_r2_v1.2.,2013-04-02 16:30:00,
2013-04-02 11:35:00,45.1,21.6,30.36,ESE,117,1.0,5.0,39,0.00,,,0.00,621,HR-IXPWINDi_r2_v1.2.,2013-04-02 16:35:00,
2013-04-02 11:40:00,44.9,20.8,30.35,East,92,0.0,5.0,38,0.00,,,0.00,568,HR-IXPWINDi_r2_v1.2.,2013-04-02 16:40:00,
2013-04-02 11:45:00,46.3,22.1,30.36,South,171,0.0,5.0,38,0.00,,,0.00,608,HR-IXPWINDi_r2_v1.2.,2013-04-02 16:45:00,
2013-04-02 11:51:00,47.7,21.4,30.35,SSW,209,0.0,3.0,35,0.00,,,0.00,696,HR-IXPWINDi_r2_v1.2.,2013-04-02 16:51:00,
2013-04-02 11:56:00,47.4,21.1,30.35,NE,50,1.0,4.0,35,0.00,,,0.00,700,HR-IXPWINDi_r2_v1.2.,2013-04-02 16:56:00,
2013-04-02 12:01:00,47.0,21.4,30.35,ENE,57,3.0,4.0,36,0.00,,,0.00,666,HR-IXPWINDi_r2_v1.2.,2013-04-02 17:01:00,
2013-04-02 12:06:00,46.9,21.3,30.35,NE,39,2.0,7.0,36,0.00,,,0.00,868,HR-IXPWINDi_r2_v1.2.,2013-04-02 17:06:00,
2013-04-02 12:11:00,47.3,21.0,30.34,ENE,63,0.0,7.0,35,0.00,,,0.00,777,HR-IXPWINDi_r2_v1.2.,2013-04-02 17:11:00,
2013-04-02 12:16:00,48.0,21.6,30.35,ENE,74,2.0,5.0,35,0.00,,,0.00,949,HR-IXPWINDi_r2_v1.2.,2013-04-02 17:16:00,
2013-04-02 12:21:00,47.7,21.4,30.35,ENE,63,0.0,4.0,35,0.00,,,0.00,758,HR-IXPWINDi_r2_v1.2.,2013-04-02 17:21:00,
2013-04-02 12:26:00,47.2,21.6,30.34,ENE,63,1.0,4.0,36,0.00,,,0.00,926,HR-IXPWINDi_r2_v1.2.,2013-04-02 17:26:00,
2013-04-02 12:31:00,47.8,21.5,30.34,ENE,63,1.0,3.0,35,0.00,,,0.00,900,HR-IXPWINDi_r2_v1.2.,2013-04-02 17:31:00,
2013-04-02 12:36:00,47.6,21.3,30.34,ENE,63,0.0,3.0,35,0.00,,,0.00,896,HR-IXPWINDi_r2_v1.2.,2013-04-02 17:36:00,
2013-04-02 12:41:00,50.2,22.9,30.34,SSW,198,1.0,5.0,34,0.00,,,0.00,860,HR-IXPWINDi_r2_v1.2.,2013-04-02 17:41:00,
2013-04-02 12:46:00,50.5,22.5,30.34,NNE,32,1.0,5.0,33,0.00,,,0.00,863,HR-IXPWINDi_r2_v1.2.,2013-04-02 17:46:00,
2013-04-02 12:51:00,50.4,23.1,30.33,WNW,285,2.0,5.0,34,0.00,,,0.00,902,HR-IXPWINDi_r2_v1.2.,2013-04-02 17:51:00,
2013-04-02 12:56:00,51.1,22.3,30.33,NE,49,2.0,5.0,32,0.00,,,0.00,914,HR-IXPWINDi_r2_v1.2.,2013-04-02 17:56:00,
2013-04-02 13:01:00,50.5,22.5,30.33,NW,319,0.0,8.0,33,0.00,,,0.00,928,HR-IXPWINDi_r2_v1.2.,2013-04-02 18:01:00,
2013-04-02 13:07:00,50.6,23.3,30.33,WNW,292,1.0,8.0,34,0.00,,,0.00,954,HR-IXPWINDi_r2_v1.2.,2013-04-02 18:07:00,
2013-04-02 13:12:00,51.2,23.1,30.33,WNW,292,5.0,7.0,33,0.00,,,0.00,1013,HR-IXPWINDi_r2_v1.2.,2013-04-02 18:12:00,
2013-04-02 13:17:00,52.0,23.0,30.33,NW,313,2.0,7.0,32,0.00,,,0.00,867,HR-IXPWINDi_r2_v1.2.,2013-04-02 18:17:00,
2013-04-02 13:22:00,52.2,22.5,30.33,NNW,346,0.0,7.0,31,0.00,,,0.00,439,HR-IXPWINDi_r2_v1.2.,2013-04-02 18:22:00,
2013-04-02 13:28:00,51.9,23.0,30.32,NW,313,0.0,6.0,32,0.00,,,0.00,475,HR-IXPWINDi_r2_v1.2.,2013-04-02 18:28:00,
2013-04-02 13:33:00,51.6,22.7,30.32,NW,308,0.0,6.0,32,0.00,,,0.00,445,HR-IXPWINDi_r2_v1.2.,2013-04-02 18:33:00,
2013-04-02 13:38:00,51.3,23.2,30.32,WNW,296,1.0,4.0,33,0.00,,,0.00,684,HR-IXPWINDi_r2_v1.2.,2013-04-02 18:38:00,
2013-04-02 13:43:00,51.1,23.0,30.31,WNW,295,1.0,5.0,33,0.00,,,0.00,875,HR-IXPWINDi_r2_v1.2.,2013-04-02 18:43:00,
2013-04-02 13:48:00,51.1,23.0,30.31,WNW,294,1.0,5.0,33,0.00,,,0.00,844,HR-IXPWINDi_r2_v1.2.,2013-04-02 18:48:00,
2013-04-02 13:53:00,51.6,23.4,30.31,WSW,245,5.0,5.0,33,0.00,,,0.00,728,HR-IXPWINDi_r2_v1.2.,2013-04-02 18:53:00,
2013-04-02 13:58:00,52.5,23.5,30.31,West,261,0.0,7.0,32,0.00,,,0.00,861,HR-IXPWINDi_r2_v1.2.,2013-04-02 18:58:00,
2013-04-02 14:04:00,53.8,23.1,30.31,North,11,2.0,7.0,30,0.00,,,0.00,867,HR-IXPWINDi_r2_v1.2.,2013-04-02 19:04:00,
2013-04-02 14:09:00,52.3,22.6,30.31,NE,36,0.0,7.0,31,0.00,,,0.00,867,HR-IXPWINDi_r2_v1.2.,2013-04-02 19:09:00,
2013-04-02 14:14:00,51.9,23.0,30.31,NNW,333,0.0,5.0,32,0.00,,,0.00,877,HR-IXPWINDi_r2_v1.2.,2013-04-02 19:14:00,
2013-04-02 14:19:00,51.5,23.3,30.30,NE,44,2.0,5.0,33,0.00,,,0.00,863,HR-IXPWINDi_r2_v1.2.,2013-04-02 19:19:00,
2013-04-02 14:24:00,52.0,23.8,30.30,NNW,335,3.0,5.0,33,0.00,,,0.00,860,HR-IXPWINDi_r2_v1.2.,2013-04-02 19:24:00,
2013-04-02 14:29:00,52.2,24.0,30.30,NNW,335,2.0,4.0,33,0.00,,,0.00,851,HR-IXPWINDi_r2_v1.2.,2013-04-02 19:29:00,
2013-04-02 14:35:00,53.4,24.3,30.30,WSW,237,2.0,9.0,32,0.00,,,0.00,847,HR-IXPWINDi_r2_v1.2.,2013-04-02 19:35:00,
2013-04-02 14:40:00,52.9,23.1,30.30,ENE,57,0.0,9.0,31,0.00,,,0.00,853,HR-IXPWINDi_r2_v1.2.,2013-04-02 19:40:00,
2013-04-02 14:45:00,52.3,23.3,30.30,WNW,302,0.0,9.0,32,0.00,,,0.00,888,HR-IXPWINDi_r2_v1.2.,2013-04-02 19:45:00,
2013-04-02 14:50:00,53.7,23.8,30.30,SW,230,0.0,6.0,31,0.00,,,0.00,830,HR-IXPWINDi_r2_v1.2.,2013-04-02 19:50:00,
2013-04-02 14:56:00,54.0,24.0,30.30,SW,230,0.0,4.0,31,0.00,,,0.00,821,HR-IXPWINDi_r2_v1.2.,2013-04-02 19:56:00,
2013-04-02 15:01:00,55.3,24.4,30.29,NW,306,1.0,6.0,30,0.00,,,0.00,810,HR-IXPWINDi_r2_v1.2.,2013-04-02 20:01:00,
2013-04-02 15:06:00,54.9,24.0,30.29,NW,314,0.0,6.0,30,0.00,,,0.00,803,HR-IXPWINDi_r2_v1.2.,2013-04-02 20:06:00,
2013-04-02 15:12:00,53.6,23.7,30.29,NNE,22,1.0,6.0,31,0.00,,,0.00,788,HR-IXPWINDi_r2_v1.2.,2013-04-02 20:12:00,
2013-04-02 15:17:00,52.5,23.5,30.29,NNE,30,0.0,3.0,32,0.00,,,0.00,773,HR-IXPWINDi_r2_v1.2.,2013-04-02 20:17:00,
2013-04-02 15:22:00,53.7,24.5,30.29,West,277,4.0,9.0,32,0.00,,,0.00,758,HR-IXPWINDi_r2_v1.2.,2013-04-02 20:22:00,
2013-04-02 15:27:00,53.7,24.5,30.29,WNW,296,1.0,9.0,32,0.00,,,0.00,759,HR-IXPWINDi_r2_v1.2.,2013-04-02 20:27:00,
2013-04-02 15:32:00,54.3,24.3,30.28,WNW,302,2.0,6.0,31,0.00,,,0.00,756,HR-IXPWINDi_r2_v1.2.,2013-04-02 20:32:00,
2013-04-02 15:38:00,54.6,24.6,30.28,WNW,290,1.0,7.0,31,0.00,,,0.00,742,HR-IXPWINDi_r2_v1.2.,2013-04-02 20:38:00,
2013-04-02 15:43:00,54.4,24.4,30.28,NNW,338,3.0,7.0,31,0.00,,,0.00,726,HR-IXPWINDi_r2_v1.2.,2013-04-02 20:43:00,
2013-04-02 15:48:00,54.8,24.0,30.28,West,279,0.0,6.0,30,0.00,,,0.00,708,HR-IXPWINDi_r2_v1.2.,2013-04-02 20:48:00,
2013-04-02 15:53:00,55.4,24.5,30.28,NW,320,0.0,6.0,30,0.00,,,0.00,703,HR-IXPWINDi_r2_v1.2.,2013-04-02 20:53:00,
2013-04-02 15:58:00,55.1,24.2,30.28,West,279,1.0,6.0,30,0.00,,,0.00,689,HR-IXPWINDi_r2_v1.2.,2013-04-02 20:58:00,
2013-04-02 16:03:00,54.2,24.2,30.28,WSW,253,3.0,6.0,31,0.00,,,0.00,675,HR-IXPWINDi_r2_v1.2.,2013-04-02 21:03:00,
2013-04-02 16:09:00,55.1,25.0,30.28,WSW,247,0.0,7.0,31,0.00,,,0.00,663,HR-IXPWINDi_r2_v1.2.,2013-04-02 21:09:00,
2013-04-02 16:14:00,55.8,24.8,30.27,WSW,247,1.0,7.0,30,0.00,,,0.00,647,HR-IXPWINDi_r2_v1.2.,2013-04-02 21:14:00,
2013-04-02 16:19:00,54.9,24.0,30.27,West,263,2.0,3.0,30,0.00,,,0.00,640,HR-IXPWINDi_r2_v1.2.,2013-04-02 21:19:00,
2013-04-02 16:25:00,55.0,24.9,30.27,NW,305,1.0,6.0,31,0.00,,,0.00,624,HR-IXPWINDi_r2_v1.2.,2013-04-02 21:25:00,
2013-04-02 16:30:00,54.0,24.8,30.26,WSW,244,6.0,6.0,32,0.00,,,0.00,606,HR-IXPWINDi_r2_v1.2.,2013-04-02 21:30:00,
2013-04-02 16:35:00,54.7,24.6,30.26,WSW,244,3.0,7.0,31,0.00,,,0.00,592,HR-IXPWINDi_r2_v1.2.,2013-04-02 21:35:00,
2013-04-02 16:40:00,53.8,24.6,30.27,WNW,286,0.0,7.0,32,0.00,,,0.00,582,HR-IXPWINDi_r2_v1.2.,2013-04-02 21:40:00,
2013-04-02 16:46:00,53.5,24.4,30.26,NNE,23,3.0,5.0,32,0.00,,,0.00,563,HR-IXPWINDi_r2_v1.2.,2013-04-02 21:46:00,
2013-04-02 16:51:00,53.1,24.0,30.26,NNE,28,2.0,5.0,32,0.00,,,0.00,555,HR-IXPWINDi_r2_v1.2.,2013-04-02 21:51:00,
2013-04-02 16:56:00,52.8,24.5,30.26,NE,46,0.0,5.0,33,0.00,,,0.00,531,HR-IXPWINDi_r2_v1.2.,2013-04-02 21:56:00,
2013-04-02 17:01:00,53.2,24.8,30.26,NW,306,1.0,5.0,33,0.00,,,0.00,515,HR-IXPWINDi_r2_v1.2.,2013-04-02 22:01:00,
2013-04-02 17:06:00,54.4,25.1,30.26,WNW,298,3.0,7.0,32,0.00,,,0.00,499,HR-IXPWINDi_r2_v1.2.,2013-04-02 22:06:00,
2013-04-02 17:11:00,54.7,24.6,30.26,WNW,295,0.0,7.0,31,0.00,,,0.00,485,HR-IXPWINDi_r2_v1.2.,2013-04-02 22:11:00,
2013-04-02 17:16:00,54.7,24.6,30.26,WNW,289,1.0,6.0,31,0.00,,,0.00,466,HR-IXPWINDi_r2_v1.2.,2013-04-02 22:16:00,
2013-04-02 17:22:00,54.1,24.1,30.26,NNW,345,0.0,6.0,31,0.00,,,0.00,450,HR-IXPWINDi_r2_v1.2.,2013-04-02 22:22:00,
2013-04-02 17:27:00,53.9,24.7,30.26,WNW,284,0.0,4.0,32,0.00,,,0.00,438,HR-IXPWINDi_r2_v1.2.,2013-04-02 22:27:00,
2013-04-02 17:32:00,53.3,24.2,30.26,North,355,0.0,4.0,32,0.00,,,0.00,425,HR-IXPWINDi_r2_v1.2.,2013-04-02 22:32:00,
2013-04-02 17:37:00,52.9,24.6,30.26,North,351,1.0,4.0,33,0.00,,,0.00,406,HR-IXPWINDi_r2_v1.2.,2013-04-02 22:37:00,
2013-04-02 17:42:00,53.5,25.1,30.26,WNW,300,1.0,4.0,33,0.00,,,0.00,390,HR-IXPWINDi_r2_v1.2.,2013-04-02 22:42:00,
2013-04-02 17:48:00,53.8,25.4,30.26,WNW,300,1.0,4.0,33,0.00,,,0.00,373,HR-IXPWINDi_r2_v1.2.,2013-04-02 22:48:00,
2013-04-02 17:53:00,53.4,24.3,30.26,WNW,300,0.0,4.0,32,0.00,,,0.00,343,HR-IXPWINDi_r2_v1.2.,2013-04-02 22:53:00,
2013-04-02 17:58:00,52.8,24.5,30.26,WSW,248,3.0,3.0,33,0.00,,,0.00,318,HR-IXPWINDi_r2_v1.2.,2013-04-02 22:58:00,
2013-04-02 18:03:00,53.3,24.9,30.25,West,265,0.0,4.0,33,0.00,,,0.00,278,HR-IXPWINDi_r2_v1.2.,2013-04-02 23:03:00,
2013-04-02 18:08:00,53.4,25.0,30.26,West,265,0.0,4.0,33,0.00,,,0.00,283,HR-IXPWINDi_r2_v1.2.,2013-04-02 23:08:00,
2013-04-02 18:13:00,53.4,25.0,30.26,West,261,0.0,2.0,33,0.00,,,0.00,271,HR-IXPWINDi_r2_v1.2.,2013-04-02 23:13:00,
2013-04-02 18:18:00,53.5,25.1,30.26,West,259,2.0,2.0,33,0.00,,,0.00,257,HR-IXPWINDi_r2_v1.2.,2013-04-02 23:18:00,
2013-04-02 18:24:00,53.6,24.4,30.26,WSW,244,0.0,2.0,32,0.00,,,0.00,234,HR-IXPWINDi_r2_v1.2.,2013-04-02 23:24:00,
2013-04-02 18:29:00,53.5,24.4,30.26,SE,137,1.0,2.0,32,0.00,,,0.00,211,HR-IXPWINDi_r2_v1.2.,2013-04-02 23:29:00,
2013-04-02 18:34:00,53.6,24.4,30.26,South,186,0.0,2.0,32,0.00,,,0.00,186,HR-IXPWINDi_r2_v1.2.,2013-04-02 23:34:00,
2013-04-02 18:39:00,53.1,24.7,30.26,South,186,1.0,2.0,33,0.00,,,0.00,171,HR-IXPWINDi_r2_v1.2.,2013-04-02 23:39:00,
2013-04-02 18:44:00,52.7,24.4,30.26,South,186,0.0,1.0,33,0.00,,,0.00,156,HR-IXPWINDi_r2_v1.2.,2013-04-02 23:44:00,
2013-04-02 18:49:00,52.6,25.0,30.26,South,184,0.0,1.0,34,0.00,,,0.00,137,HR-IXPWINDi_r2_v1.2.,2013-04-02 23:49:00,
2013-04-02 18:55:00,51.8,24.3,30.26,South,183,0.0,3.0,34,0.00,,,0.00,118,HR-IXPWINDi_r2_v1.2.,2013-04-02 23:55:00,
2013-04-02 19:00:00,51.5,24.7,30.26,South,183,0.0,3.0,35,0.00,,,0.00,98,HR-IXPWINDi_r2_v1.2.,2013-04-03 00:00:00,
2013-04-02 19:05:00,51.3,24.6,30.26,South,183,0.0,1.0,35,0.00,,,0.00,83,HR-IXPWINDi_r2_v1.2.,2013-04-03 00:05:00,
2013-04-02 19:10:00,51.2,24.5,30.26,South,183,1.0,1.0,35,0.00,,,0.00,67,HR-IXPWINDi_r2_v1.2.,2013-04-03 00:10:00,
2013-04-02 19:15:00,50.6,24.6,30.26,South,183,0.0,1.0,36,0.00,,,0.00,54,HR-IXPWINDi_r2_v1.2.,2013-04-03 00:15:00,
2013-04-02 19:21:00,50.3,24.4,30.26,South,183,0.0,2.0,36,0.00,,,0.00,42,HR-IXPWINDi_r2_v1.2.,2013-04-03 00:21:00,
2013-04-02 19:26:00,50.0,24.7,30.25,South,183,0.0,2.0,37,0.00,,,0.00,32,HR-IXPWINDi_r2_v1.2.,2013-04-03 00:26:00,
2013-04-02 19:31:00,50.0,24.7,30.25,South,183,0.0,1.0,37,0.00,,,0.00,25,HR-IXPWINDi_r2_v1.2.,2013-04-03 00:31:00,
2013-04-02 19:36:00,49.7,24.5,30.25,South,183,0.0,1.0,37,0.00,,,0.00,16,HR-IXPWINDi_r2_v1.2.,2013-04-03 00:36:00,
2013-04-02 19:41:00,49.5,24.3,30.25,South,183,0.0,1.0,37,0.00,,,0.00,9,HR-IXPWINDi_r2_v1.2.,2013-04-03 00:41:00,
2013-04-02 19:46:00,49.1,24.6,30.25,South,183,1.0,2.0,38,0.00,,,0.00,5,HR-IXPWINDi_r2_v1.2.,2013-04-03 00:46:00,
2013-04-02 19:52:00,48.8,24.3,30.25,South,180,2.0,2.0,38,0.00,,,0.00,0,HR-IXPWINDi_r2_v1.2.,2013-04-03 00:52:00,
2013-04-02 19:57:00,48.3,24.5,30.25,SSE,167,0.0,4.0,39,0.00,,,0.00,0,HR-IXPWINDi_r2_v1.2.,2013-04-03 00:57:00,
2013-04-02 20:02:00,47.8,24.6,30.25,SSE,152,1.0,5.0,40,0.00,,,0.00,0,HR-IXPWINDi_r2_v1.2.,2013-04-03 01:02:00,
2013-04-02 20:07:00,47.2,24.7,30.25,SSE,155,0.0,5.0,41,0.00,,,0.00,0,HR-IXPWINDi_r2_v1.2.,2013-04-03 01:07:00,
2013-04-02 20:12:00,46.9,25.0,30.25,SSE,153,0.0,5.0,42,0.00,,,0.00,0,HR-IXPWINDi_r2_v1.2.,2013-04-03 01:12:00,
2013-04-02 20:17:00,46.5,24.6,30.26,SSE,149,1.0,4.0,42,0.00,,,0.00,0,HR-IXPWINDi_r2_v1.2.,2013-04-03 01:17:00,
2013-04-02 20:22:00,46.1,24.3,30.25,SE,144,1.0,3.0,42,0.00,,,0.00,0,HR-IXPWINDi_r2_v1.2.,2013-04-03 01:22:00,
2013-04-02 20:27:00,45.8,24.6,30.25,SE,135,1.0,3.0,43,0.00,,,0.00,0,HR-IXPWINDi_r2_v1.2.,2013-04-03 01:27:00,
2013-04-02 20:33:00,45.6,24.4,30.25,SE,126,2.0,3.0,43,0.00,,,0.00,0,HR-IXPWINDi_r2_v1.2.,2013-04-03 01:33:00,
2013-04-02 20:38:00,45.4,24.2,30.25,SSE,155,1.0,4.0,43,0.00,,,0.00,0,HR-IXPWINDi_r2_v1.2.,2013-04-03 01:38:00,
2013-04-02 20:43:00,45.2,24.0,30.25,ESE,117,1.0,5.0,43,0.00,,,0.00,0,HR-IXPWINDi_r2_v1.2.,2013-04-03 01:43:00,
2013-04-02 20:48:00,45.2,24.0,30.26,SE,129,1.0,5.0,43,0.00,,,0.00,0,HR-IXPWINDi_r2_v1.2.,2013-04-03 01:48:00,
2013-04-02 20:54:00,45.0,24.4,30.26,SE,131,1.0,3.0,44,0.00,,,0.00,0,HR-IXPWINDi_r2_v1.2.,2013-04-03 01:54:00,
2013-04-02 20:59:00,44.6,24.0,30.26,SE,143,1.0,3.0,44,0.00,,,0.00,0,HR-IXPWINDi_r2_v1.2.,2013-04-03 01:59:00,
2013-04-02 21:04:00,44.4,23.8,30.26,SE,142,1.0,3.0,44,0.00,,,0.00,0,HR-IXPWINDi_r2_v1.2.,2013-04-03 02:04:00,
2013-04-02 21:09:00,44.5,24.5,30.26,SE,138,2.0,5.0,45,0.00,,,0.00,0,HR-IXPWINDi_r2_v1.2.,2013-04-03 02:09:00,
2013-04-02 21:14:00,44.2,24.2,30.26,South,173,1.0,5.0,45,0.00,,,0.00,0,HR-IXPWINDi_r2_v1.2.,2013-04-03 02:14:00,
2013-04-02 21:20:00,43.8,24.4,30.26,South,171,2.0,3.0,46,0.00,,,0.00,0,HR-IXPWINDi_r2_v1.2.,2013-04-03 02:20:00,
2013-04-02 21:25:00,43.5,24.1,30.27,SSE,162,2.0,3.0,46,0.00,,,0.00,0,HR-IXPWINDi_r2_v1.2.,2013-04-03 02:25:00,
2013-04-02 21:30:00,43.4,24.0,30.27,SSE,161,2.0,3.0,46,0.00,,,0.00,0,HR-IXPWINDi_r2_v1.2.,2013-04-03 02:30:00,
2013-04-02 21:35:00,43.3,23.9,30.27,SSE,153,1.0,3.0,46,0.00,,,0.00,0,HR-IXPWINDi_r2_v1.2.,2013-04-03 02:35:00,
2013-04-02 21:40:00,43.2,23.8,30.27,SSE,150,0.0,5.0,46,0.00,,,0.00,0,HR-IXPWINDi_r2_v1.2.,2013-04-03 02:40:00,
2013-04-02 21:45:00,43.1,24.2,30.27,SE,128,2.0,5.0,47,0.00,,,0.00,0,HR-IXPWINDi_r2_v1.2.,2013-04-03 02:45:00,
2013-04-02 21:50:00,42.8,24.0,30.28,East,80,1.0,6.0,47,0.00,,,0.00,0,HR-IXPWINDi_r2_v1.2.,2013-04-03 02:50:00,
2013-04-02 21:56:00,42.5,24.2,30.28,East,80,0.0,6.0,48,0.00,,,0.00,0,HR-IXPWINDi_r2_v1.2.,2013-04-03 02:56:00,
2013-04-02 22:01:00,42.2,23.9,30.28,East,88,1.0,2.0,48,0.00,,,0.00,0,HR-IXPWINDi_r2_v1.2.,2013-04-03 03:01:00,
2013-04-02 22:06:00,42.0,23.7,30.28,East,94,2.0,3.0,48,0.00,,,0.00,0,HR-IXPWINDi_r2_v1.2.,2013-04-03 03:06:00,
2013-04-02 22:11:00,41.8,24.0,30.28,East,94,0.0,3.0,49,0.00,,,0.00,0,HR-IXPWINDi_r2_v1.2.,2013-04-03 03:11:00,
2013-04-02 22:17:00,41.5,24.2,30.29,ESE,103,2.0,4.0,50,0.00,,,0.00,0,HR-IXPWINDi_r2_v1.2.,2013-04-03 03:17:00,
2013-04-02 22:22:00,41.4,23.7,30.29,East,92,3.0,7.0,49,0.00,,,0.00,0,HR-IXPWINDi_r2_v1.2.,2013-04-03 03:22:00,
2013-04-02 22:27:00,41.3,24.1,30.29,ENE,78,4.0,7.0,50,0.00,,,0.00,0,HR-IXPWINDi_r2_v1.2.,2013-04-03 03:27:00,
2013-04-02 22:32:00,41.2,23.5,30.29,East,101,3.0,8.0,49,0.00,,,0.00,0,HR-IXPWINDi_r2_v1.2.,2013-04-03 03:32:00,
2013-04-02 22:37:00,41.0,23.8,30.29,East,89,1.0,8.0,50,0.00,,,0.00,0,HR-IXPWINDi_r2_v1.2.,2013-04-03 03:37:00,
2013-04-02 22:42:00,40.8,23.6,30.29,SE,131,3.0,7.0,50,0.00,,,0.00,0,HR-IXPWINDi_r2_v1.2.,2013-04-03 03:42:00,
2013-04-02 22:47:00,40.6,23.4,30.29,ESE,102,3.0,7.0,50,0.00,,,0.00,0,HR-IXPWINDi_r2_v1.2.,2013-04-03 03:47:00,
2013-04-02 22:53:00,40.6,22.9,30.29,ESE,115,2.0,6.0,49,0.00,,,0.00,0,HR-IXPWINDi_r2_v1.2.,2013-04-03 03:53:00,
2013-04-02 22:58:00,40.3,23.1,30.29,East,98,3.0,6.0,50,0.00,,,0.00,0,HR-IXPWINDi_r2_v1.2.,2013-04-03 03:58:00,
2013-04-02 23:00:00,40.3,23.1,30.29,East,94,2.0,6.0,50,0.00,,,0.00,0,HR-IXPWINDi_r2_v1.2.,2013-04-03 04:00:00,
2013-04-02 23:05:00,40.0,23.3,30.29,East,80,2.0,6.0,51,0.00,,,0.00,0,HR-IXPWINDi_r2_v1.2.,2013-04-03 04:05:00,
2013-04-02 23:10:00,39.5,22.9,30.29,ESE,123,3.0,7.0,51,0.00,,,0.00,0,HR-IXPWINDi_r2_v1.2.,2013-04-03 04:10:00,
2013-04-02 23:15:00,39.4,22.8,30.29,East,91,5.0,7.0,51,0.00,,,0.00,0,HR-IXPWINDi_r2_v1.2.,2013-04-03 04:15:00,
2013-04-02 23:20:00,39.2,23.0,30.30,East,96,5.0,6.0,52,0.00,,,0.00,0,HR-IXPWINDi_r2_v1.2.,2013-04-03 04:20:00,
2013-04-02 23:25:00,38.8,23.1,30.29,East,88,2.0,6.0,53,0.00,,,0.00,0,HR-IXPWINDi_r2_v1.2.,2013-04-03 04:25:00,
2013-04-02 23:30:00,38.7,23.0,30.30,ESE,105,4.0,6.0,53,0.00,,,0.00,0,HR-IXPWINDi_r2_v1.2.,2013-04-03 04:30:00,
2013-04-02 23:36:00,38.5,22.8,30.30,ESE,121,3.0,7.0,53,0.00,,,0.00,0,HR-IXPWINDi_r2_v1.2.,2013-04-03 04:36:00,
2013-04-02 23:41:00,38.3,22.7,30.30,SE,138,3.0,7.0,53,0.00,,,0.00,0,HR-IXPWINDi_r2_v1.2.,2013-04-03 04:41:00,
2013-04-02 23:46:00,38.2,22.6,30.30,SE,138,1.0,6.0,53,0.00,,,0.00,0,HR-IXPWINDi_r2_v1.2.,2013-04-03 04:46:00,
2013-04-02 23:51:00,37.9,22.7,30.30,SE,129,1.0,5.0,54,0.00,,,0.00,0,HR-IXPWINDi_r2_v1.2.,2013-04-03 04:51:00,
2013-04-02 23:56:00,37.8,22.6,30.30,ESE,120,2.0,5.0,54,0.00,,,0.00,0,HR-IXPWINDi_r2_v1.2.,2013-04-03 04:56:00,